Regional Weather Roundup
Issued by NWS

Home | Current Version | Previous Version | Graphics & Text | Print | Product List | Glossary On
Versions: 1 2 3 4 5 6 7 8 9 10 11 12 13 14 15 16 17 18 19 20 21 22 23 24 25 26 27 28 29 30 31 32 33 34 35 36 37 38 39 40 41 42 43 44 45 46 47 48 49 50
000
ASUS43 KOAX 261610
RWRNE

WEATHER ROUNDUP FOR NEBRASKA
NATIONAL WEATHER SERVICE OMAHA NE
1100 AM CDT TUE MAY 26 2015

NOTES: SATELLITE DATA IS BEING USED TO AUGMENT CLOUD COVER ABOVE
       12000 FEET.
       "FAIR" INDICATES FEW OR NO CLOUDS BELOW 12,000 FEET WITH NO
       SIGNIFICANT WEATHER AND/OR OBSTRUCTIONS TO VISIBILITY.

  * THESE STATIONS DO NOT REPORT WEATHER SUCH AS RAIN...SNOW OR FOG.

NEZ001>004-019>022-054>056-261700-
NEBRASKA PANHANDLE

CITY           SKY/WX    TMP DP  RH WIND       PRES   REMARKS
SCOTTSBLUFF    CLOUDY    59  52  77 CALM      30.02S
ALLIANCE       CLOUDY    56  51  84 NE7       30.01R
CHADRON        CLOUDY    57  52  83 SE5       30.01S
KIMBALL          N/A    N/A N/A N/A MISG        N/A
SIDNEY         CLOUDY    57  52  83 N5        30.04S
$$

NEZ057>060-069>072-079>082-261700-
SOUTHWEST NEBRASKA

CITY           SKY/WX    TMP DP  RH WIND       PRES   REMARKS
NORTH PLATTE   PTSUNNY   61  49  64 NW12      29.99R
IMPERIAL       CLOUDY    59  52  77 NW7       30.01R
LEXINGTON      CLOUDY    61  53  74 NW12      29.95R
MCCOOK         PTSUNNY   64  51  62 NW10      29.97S
OGALLALA       CLOUDY    60  53  78 N8        30.01R
$$

NEZ005>010-023>029-035>040-094-261700-
NORTH CENTRAL NEBRASKA

CITY           SKY/WX    TMP DP  RH WIND       PRES   REMARKS
VALENTINE      SUNNY     64  48  56 N13       29.96F
AINSWORTH      PTSUNNY   62  50  66 N16G24    29.95S
BROKEN BOW     CLOUDY    61  50  67 N21       29.92S
O`NEILL        CLOUDY    59  52  76 N17G23    29.90S
ORD            CLOUDY    57  50  77 N17       29.89R
THEDFORD       PTSUNNY   62  49  62 N13G18    29.97S
$$

NEZ041-046>049-061>064-073>077-083>087-261700-
SOUTH CENTRAL NEBRASKA

CITY           SKY/WX    TMP DP  RH WIND       PRES   REMARKS
GRAND ISLAND   CLOUDY    60  54  80 N13       29.89R
AURORA         CLOUDY    60  58  94 NW15      29.88R
HASTINGS       CLOUDY    61  54  77 NW14      29.90R
HEBRON         CLOUDY    65  56  70 NW14      29.86R
HOLDREGE       PTSUNNY   62  50  64 NW14G22   29.93S
KEARNEY *      CLOUDY    61  48  63 NW16      29.92R
YORK           CLOUDY    59  57  94 NW15      29.86R
$$

NEZ011>018-030>034-042>045-261700-
NORTHEAST NEBRASKA

CITY           SKY/WX    TMP DP  RH WIND       PRES   REMARKS
NORFOLK        LGT RAIN  58  56  93 NW13      29.83S
ALBION         CLOUDY    58  53  83 N12       29.87R
BLAIR          CLOUDY    63  58  85 W5        29.78S
COLUMBUS *     CLOUDY    59  52  77 NW14      29.85R
FREMONT        CLOUDY    64  61  91 W6        29.80S
TEKAMAH        CLOUDY    66  61  84 NW8       29.77S
WAYNE          CLOUDY    58  56  91 NW10G16   29.83R
$$

NEZ050>053-065>068-078-088>093-261700-
SOUTHEAST NEBRASKA

CITY           SKY/WX    TMP DP  RH WIND       PRES   REMARKS
LINCOLN        CLOUDY    66  58  75 NW7       29.82R
OMAHA EPPLEY   CLOUDY    67  59  75 W5        29.78S
BEATRICE       PTSUNNY   67  59  75 NW6       29.81S
FALLS CITY     CLOUDY    64  61  90 SW12      29.81R
NEBRASKA CITY  CLOUDY    64  62  92 SW9       29.81R
PLATTSMOUTH    CLOUDY    65  59  81 SW7       29.79S
$$

NEZ044-045-051>053-067-261700-
OMAHA AREA

CITY           SKY/WX    TMP DP  RH WIND       PRES   REMARKS
OMAHA EPPLEY   CLOUDY    67  59  75 W5        29.78S
BLAIR          CLOUDY    63  58  85 W5        29.78S
FREMONT        CLOUDY    64  61  91 W6        29.80S
MILLARD        RAIN      63  60  90 CALM      29.78S
OFFUTT AFB     LGT RAIN  64  59  82 S7        29.77S
PLATTSMOUTH    CLOUDY    65  59  81 SW7       29.79S
WAHOO          CLOUDY    64  61  88 NW7       29.80S
$$



USA.gov is the U.S. government's official web portal to all federal, state and local government web resources and services.